sat.trackr.live / text

‹ back to catalog

IRIDIUM 131

NORAD 43079 · 2017-083K

PAYLOAD ACTIVE UNKNOWN

§ Identity

Operator
Country
US
Launch date
2017-12-23
Launch site
AFWTR
Launch vehicle
Mass (kg)
RCS (m²)

Purposes: comms

External: N2YO · Heavens-Above · Gunter

§ Orbital elements

Epoch: 2026-09-20T00:07:15.163104Z

Period
100.40 min
Inclination
86.3917°
Eccentricity
0.0002157
Mean motion
14.34217136 rev/d
Perigee alt
776.1 km
Apogee alt
779.2 km
Semi-major
7,155.8 km
B*
-1.1900e-5
RAAN
282.5398°
Arg perigee
92.2259°
Mean anomaly
267.9184°
Rev number
45,769

§ Raw data

IRIDIUM 1311 43079U 17083K   26263.00503661 -.00000014  00000+0 -11900-4 0  99932 43079  86.3917 282.5398 0002157  92.2259 267.9184 14.34217136457690

JSON: /api/v1/satellites/43079 · /tle

For live sub-satellite position, see the globe view (requires WebGL).

§ Visibility from observer

Set your observer location to see the next 7 days of passes ≥ 10°. The values pass through the URL so the page stays shareable.

No JS? Fill the form by hand. The geolocation button needs JavaScript.